Location: Betzi
(47.2343°N, 9.5260°E)
Time: 22:01:56
(UTC+00:00)

CBERS-1 - Pass Details

Date: 27 May 2022
Orbit: 770 x 776 km, 98.7° (Epoch: 29 June)

Event Time Altitude Azimuth Distance (km) Brightness Sun altitude
Rises 02:48:12 0° 12° (NNE) 3,257 8.2 -6.9°
Reaches altitude 10° 02:50:32 10° 10° (N) 2,326 7.4 -6.6°
Maximum altitude 02:55:37 69° 288° (WNW) 827 4.1 -6.0°
Drops below altitude 10° 03:00:41 10° 206° (SSW) 2,313 5.9 -5.3°
Enters shadow 03:02:18 - 204° (SSW) 2,963 6.5 -5.1°
